STARLINK-34447, 64710

Orbit data source: Space-Track

STARLINK-34447, 64710 is a payload satellite owned by SpaceX/Seattle (US) in LEO that was launched on Sat, 28 Jun 2025 UTC via an FALCON 9 launch vehicle from the Air Force Western Test Range (AFWTR). Payload-class satellites include a variety of spacecraft equipped with specific instruments for various scientific and technological missions. These include communications satellites like Starlink; space stations such as the ISS; scientific satellites like the Hubble; Earth observation satellites from companies like Planet Labs, Umbra, and HawkEye 360; GPS; miniature CubeSats for education and research; and military/defense satellites.

Not visible in the next 10 days
Identifier
64710, 2025-142Q
Orbit
LEO
Last TLE update
8 hours ago
Origin
Manufacturer
SpaceX/Seattle
Mission
Operational spacecraft
Bus & Motor
STARLINK V2MO, Unknown motor
Mass
575 kg wet, ~530 kg dry
Launch date (UTC)
2025-06-28 (1 week ago)
Launch vehicle
FALCON 9
Launch site
Air Force Western Test Range (AFWTR)
Object type
Payload
Rocket body
Debris
Shape & HBR
Unknown
Radar Cross Section
RCS unknown

Expand to show TLE details & history

TLE from 8 hours ago
0 STARLINK-34447
1 64710U 25142Q   25186.58335648 -.01202453  00000-0 -48658-2 0  9998
2 64710  69.9949 231.3180 0003954 277.1846  64.7572 15.88758099  2294
Epoch: 2025-07-05T14:00Z
TLE epoch observation values (Epoch: 2025-07-05T14:00:01.999Z)
Latitude
-17.10814°
Longitude
91.0928°
Altitude
310.901 km
Speed
7.721 km/s
True Right ascension
14h 59m 40s
True Declination
-17° 00' 19"
Sunlit
Object was in full shadow at epoch
Visualization orbit readout
Latitude
60.28391°
Longitude
135.90367°
Altitude
320.051 km
Speed
7.721 km/s
Apparent Right ascension
20h 19m 11s
Apparent Declination
13° 23' 58"
Sunlit
Object is in daylight
Visualization observer readout
Local Sidereal Time
09:51:06
Azimuth
26.78° NE
Elevation
-32.562°
Doppler factor
1
Orbital elements
Apogee altitude
306.272 km
Perigee altitude
300.989 km
Semi-major axis
6,681.767 km
Eccentricity
0.0004
Inclination
69.9949°
RAAN
231.318°
Arg. of periapsis
277.1846°
True anomaly
Unknown
Mean anomaly
64.7572°
Eccentric anomaly
Unknown
Mean motion
3.9738 °/min
Orbital period
90.59 mins
BSTAR
-0.0048658
Loading maneuver chart data...
Loading SW <> Apogee altitude chart data...
Loading historical data...
Loading historical data...
Loading historical data...
Loading historical data...
Loading historical data...
Loading historical data...
Loading historical data...

STARLINK-34447 Visibility

Observer location: undefined°, undefined°

STARLINK-34447 is likely not visible in the next few days
Span
Click to sort rows by Start time (UTC) header in descending order
Start Az.
Max El. time (UTC)
Max El. Az.
Max El.
End time (UTC)
End Az.
|